date_time,PM1,PM25,PM4,PM10,PMtot
01/01/2020 00:00,9.7951374,11.95846643,13.67020318,14.0989997,14.56574698
01/01/2020 01:00,13.82684183,16.45084228,18.56494642,19.54398263,20.38005193
01/01/2020 02:00,10.67235562,12.67923452,14.5066514,15.21164158,15.82488478
01/01/2020 03:00,9.607505283,11.2426798,12.53325858,12.95769712,13.51057455
01/01/2020 04:00,8.4402262,9.964395533,11.23414153,11.5793255,11.91820243
01/01/2020 05:00,8.655707983,10.5438825,12.09061655,12.72973972,13.41946512
01/01/2020 06:00,7.53370895,9.32197785,10.90354975,11.46376965,12.01818168
01/01/2020 07:00,7.3100601,8.83690005,10.07582845,10.6224204,11.13088787
01/01/2020 08:00,6.8785462,8.203695817,9.295444883,9.557986267,9.841632883
01/01/2020 09:00,7.803574833,9.2716566,10.48120118,10.90384485,11.32885515
01/01/2020 10:00,7.86042405,9.27738565,10.4047647,10.9911346,11.45518958
01/01/2020 11:00,7.6604137,9.075871733,10.17012173,11.03922045,11.84812738
01/01/2020 12:00,11.46115068,13.1293412,14.29837793,15.12563453,15.7589683
01/01/2020 13:00,14.85888382,16.94445445,18.38373032,19.46276383,20.82932865
01/01/2020 14:00,9.63263945,11.43924963,12.82754367,13.66115835,14.42817928
01/01/2020 15:00,7.995554983,9.703791667,11.05828545,11.59105608,12.06995982
01/01/2020 16:00,8.6743809,10.2729319,11.51186523,12.07577507,12.56367702
01/01/2020 17:00,7.4589901,9.007262267,10.16435783,10.92974377,11.81496375
01/01/2020 18:00,8.372383683,9.99149685,11.25512542,11.94442605,12.97118895
01/01/2020 19:00,7.863499867,9.578377233,11.03008512,11.74980673,12.65348903
01/01/2020 20:00,14.48349923,16.05783083,17.20489417,17.67819533,18.09045477
01/01/2020 21:00,11.6993304,13.20502937,14.43010315,15.11630213,15.72907737
01/01/2020 22:00,8.5859654,10.92526855,12.85280527,13.89369515,14.76461815
01/01/2020 23:00,9.871100333,12.56812408,14.6738261,15.50749102,16.3389506
02/01/2020 00:00,7.244562167,9.559377383,11.3355066,12.04093453,12.72774945
02/01/2020 01:00,5.61944045,7.61554045,9.348475683,10.32934177,11.49541892
02/01/2020 02:00,4.1260386,6.28100015,8.353804267,9.637587717,10.70371033
02/01/2020 03:00,4.135951583,6.545538017,8.70900255,9.683854383,10.55968775
02/01/2020 04:00,3.200273433,5.1273631,6.85150845,7.941885733,9.166581283
02/01/2020 05:00,2.433168733,4.611269933,6.51738825,7.409693233,8.522456267
02/01/2020 06:00,2.37101205,5.039883117,7.1693409,7.895080217,8.600108417
02/01/2020 07:00,1.9980935,4.271485117,5.9234369,6.714719333,7.40267735
02/01/2020 08:00,2.093525583,3.943059333,5.354042267,5.693764333,6.06841575
02/01/2020 09:00,1.311011233,2.576901833,3.551217933,3.929520017,4.265088033
02/01/2020 10:00,1.402390717,2.26890685,2.990391267,3.209281,3.426036733
02/01/2020 11:00,4.999455833,6.498700817,7.614336033,7.825006033,8.11893975
02/01/2020 12:00,5.978872817,10.32098528,13.63705853,14.03238102,14.68366315
02/01/2020 13:00,4.182037817,8.265672633,11.56664978,12.03561513,12.70824998
02/01/2020 14:00,4.7498132,9.560443967,13.0804287,13.70748858,14.68815143
02/01/2020 15:00,5.286561117,10.07728253,13.23507537,13.68431392,14.52972933
02/01/2020 16:00,4.4532817,7.865116533,10.09656718,10.37686573,11.02109198
02/01/2020 17:00,5.194512217,7.718714067,9.456773133,9.78122635,10.37983955
02/01/2020 18:00,2.80030075,5.291085633,6.987954767,7.144201633,7.464851067
02/01/2020 19:00,2.8168169,6.395327883,8.7210132,8.888499083,9.331362367
02/01/2020 20:00,4.401690117,9.99423555,14.083583,14.45138583,15.17970552
02/01/2020 21:00,4.966570883,11.28941265,16.76965608,18.27727792,19.77991903
02/01/2020 22:00,4.5419755,10.34366265,15.54355537,17.31242033,19.1288859
02/01/2020 23:00,4.599476617,10.94230307,16.7812123,19.48582018,21.84050058
03/01/2020 00:00,5.777399517,13.67628425,21.05882355,24.2706505,27.15131788
03/01/2020 01:00,4.592686867,10.6494042,16.20372408,18.09034703,19.85230845
03/01/2020 02:00,5.424053067,12.32182337,18.54369018,20.64780738,22.74757222
03/01/2020 03:00,4.862747183,11.19997247,16.9849045,19.3000985,21.41336392
03/01/2020 04:00,6.139244033,14.72391492,22.97986747,27.58142928,31.51873162
03/01/2020 05:00,5.071848117,11.49071105,17.33286205,19.87891243,22.0842921
03/01/2020 06:00,4.556903183,9.897208467,14.50430965,16.13936742,17.70847887
03/01/2020 07:00,4.3984492,9.558196217,14.0427221,15.01314247,16.09315662
03/01/2020 08:00,4.764646467,10.21548907,15.09698375,16.44491175,17.8952859
03/01/2020 09:00,5.99500495,13.3094403,19.44116377,21.41676527,23.45986753
03/01/2020 10:00,7.072601683,13.36783812,18.93616615,20.53186242,22.29013672
03/01/2020 11:00,5.2063639,10.92364955,16.10099623,17.93971225,19.63489698
03/01/2020 12:00,4.486529167,9.565012683,14.20794385,15.65916593,17.04893948
03/01/2020 13:00,5.10952605,10.54542198,15.29354117,16.84917385,18.41604518
03/01/2020 14:00,5.126621433,10.33828938,14.94409695,16.0955717,17.38487223
03/01/2020 15:00,7.152496933,12.55534202,17.33680418,18.51906298,19.7757562
03/01/2020 16:00,5.210434517,11.35773433,16.00117562,16.34218357,17.12406483
03/01/2020 17:00,4.640621583,10.84494703,15.334286,15.64948132,16.4706586
03/01/2020 18:00,4.871567367,11.34779785,15.95641008,16.25357497,16.99830825
03/01/2020 19:00,6.0767701,14.59440142,20.98901173,21.39116358,22.49808238
03/01/2020 20:00,6.20238405,14.70093395,21.02345392,21.66406588,23.14939627
03/01/2020 21:00,7.0136194,16.71683632,23.83168813,24.28877055,25.46942765
03/01/2020 22:00,5.628842817,13.34376785,19.0189631,19.428919,20.40928467
03/01/2020 23:00,4.073284683,9.644691283,13.762377,13.9987217,14.66334155
04/01/2020 00:00,4.79469415,11.20757937,15.80265035,16.07700703,16.82966763
04/01/2020 01:00,3.702162083,8.69374765,12.16972947,12.30654657,12.82706792
04/01/2020 02:00,3.985650883,9.27347315,12.87451212,12.93604107,13.43045632
04/01/2020 03:00,4.077382517,9.702403417,13.65464203,13.86291758,14.46927372
04/01/2020 04:00,4.2309205,9.780959517,13.50898625,13.56040875,14.05128457
04/01/2020 05:00,3.742084617,8.694913017,12.0998939,12.27456028,12.88142238
04/01/2020 06:00,4.119742683,9.51131625,13.30152962,13.50140645,14.08684322
04/01/2020 07:00,5.756446533,13.25345367,18.74847675,18.99901377,19.83220377
04/01/2020 08:00,5.921564783,13.66265872,19.16433123,19.51412502,20.4407269
04/01/2020 09:00,6.223063783,14.0827545,19.73049675,19.99675403,20.90016787
04/01/2020 10:00,4.33445465,9.992783633,14.32539415,14.62484778,15.34180843
04/01/2020 11:00,3.554474283,8.109413033,11.64633608,12.05912107,13.00775588
04/01/2020 12:00,5.171143767,11.72433907,17.08211818,18.00262618,19.2243888
04/01/2020 13:00,4.484042183,9.937632683,14.27943767,15.1065201,16.15524638
04/01/2020 14:00,3.702389167,6.788373333,9.32405985,9.798344433,10.42931453
04/01/2020 15:00,3.681901883,7.050738433,9.946258667,10.93250045,11.94845995
04/01/2020 16:00,5.645882,10.26271073,14.23531738,14.96415337,15.88323933
04/01/2020 17:00,4.47505645,7.988418033,10.96200067,11.5267096,12.22218868
04/01/2020 18:00,3.643789583,6.262602217,8.567816033,9.049150617,9.597372033
04/01/2020 19:00,4.186019483,6.052533383,7.531976533,7.9203343,8.422734783
04/01/2020 20:00,2.814314567,4.248429017,5.350257683,5.6614551,6.29885425
04/01/2020 21:00,2.800348033,5.3138173,7.4040085,7.84367355,8.488636267
04/01/2020 22:00,2.253986133,4.781858517,6.915831383,7.566281267,8.378166083
04/01/2020 23:00,2.271369,4.893023183,7.22133565,7.84566305,8.535727683
05/01/2020 00:00,1.561871883,3.07457755,4.304948933,4.646806167,5.082075617
05/01/2020 01:00,1.295663317,2.657495,3.73913385,3.9495471,4.251215167
05/01/2020 02:00,1.217040267,2.68564035,3.919329667,4.277084567,4.6490975
05/01/2020 03:00,1.3003319,2.912056517,4.2465586,4.590045917,4.936798633
05/01/2020 04:00,2.78196965,7.079725383,11.04115823,12.68591177,14.22429495
05/01/2020 05:00,2.168530933,5.582275867,8.835074783,10.08098533,11.36996122
05/01/2020 06:00,1.907295183,4.74809165,7.4089262,8.414706417,9.395865667
05/01/2020 07:00,1.64201895,3.6258143,5.169132033,5.459561967,5.842025683
05/01/2020 08:00,1.90121385,4.1343206,5.828672883,6.071200183,6.4111448
05/01/2020 09:00,2.229817383,4.8547959,6.730219083,6.816135483,7.096258167
05/01/2020 10:00,2.720387983,5.69122415,7.679744283,7.8356435,8.195507983
05/01/2020 11:00,3.64013735,7.30738985,10.02188745,10.20451177,10.94100492
05/01/2020 12:00,4.1198812,7.787387867,10.6628034,10.99307112,11.62752293
05/01/2020 13:00,4.056272,8.577676767,12.24722122,12.80480833,13.65113268
05/01/2020 14:00,4.701110417,9.8423891,14.22154223,14.97400583,16.01770115
05/01/2020 15:00,5.353000483,10.62548992,15.18011605,16.11133605,17.46889948
05/01/2020 16:00,6.805941917,11.77257927,15.99102567,16.82861812,17.81486463
05/01/2020 17:00,6.38514275,9.377617533,11.6269763,12.15102722,12.71974682
05/01/2020 18:00,4.895258967,8.897127183,11.86666843,12.6514224,13.63478305
05/01/2020 19:00,5.2480405,8.9671907,11.92880473,12.77800738,13.68457637
05/01/2020 20:00,4.385172733,7.196048667,9.603554417,10.4969237,11.3268216
05/01/2020 21:00,4.08633945,5.44369055,6.604187233,7.032675567,7.417653517
05/01/2020 22:00,2.487195067,2.974077517,3.45449185,3.704896783,3.8956339
05/01/2020 23:00,1.898739967,2.2225035,2.50559895,2.60707325,2.693770133
06/01/2020 00:00,2.481188183,3.205305317,3.828329383,4.291667883,4.792466083
06/01/2020 01:00,2.01426225,2.406690817,2.718094167,3.023142867,3.43507525
06/01/2020 02:00,2.541725233,3.36737615,3.939677733,4.256703083,4.502957267
06/01/2020 03:00,1.190049,1.988344483,2.718505233,3.2565311,3.7335644
06/01/2020 04:00,0.942527633,1.7926967,2.528434267,2.969167383,3.407488183
06/01/2020 05:00,0.886510533,1.661947617,2.231788983,2.898221417,3.576018533
06/01/2020 06:00,1.078578517,2.119691317,2.9833088,3.46103985,4.010914183
06/01/2020 07:00,1.564368133,2.93665715,3.96994735,4.490274883,4.967444483
06/01/2020 08:00,1.740638617,3.217725567,4.127182167,4.701003483,5.291267367
06/01/2020 09:00,1.811378567,3.277208333,4.167999867,4.350957617,4.599130717
06/01/2020 10:00,1.608599917,3.621976583,5.180993783,5.404937767,5.733458017
06/01/2020 11:00,3.015736183,6.957905433,10.05220902,10.64072918,11.42703977
06/01/2020 12:00,4.81466515,11.44814398,16.29234803,16.68141758,17.58354297
06/01/2020 13:00,4.956644383,11.94238487,17.14822547,17.74221135,18.8087815
06/01/2020 14:00,4.660973417,11.03518652,16.17543605,17.37551973,18.8410263
06/01/2020 15:00,4.843144183,11.41751527,16.97217308,18.00895142,19.3425958
06/01/2020 16:00,3.96194725,9.407793,14.24077532,15.204057,16.32348805
06/01/2020 17:00,2.94939855,7.123629767,10.84272993,11.75974227,12.81295477
06/01/2020 18:00,3.800871533,8.937892117,13.20917607,13.91067682,14.88958167
06/01/2020 19:00,5.450676817,12.11633257,17.42721112,18.03543248,19.0343568
06/01/2020 20:00,5.127065467,11.32031802,16.44273995,17.29178363,18.41034603
06/01/2020 21:00,7.051501317,15.40775425,22.55353375,24.01504942,25.8082207
06/01/2020 22:00,8.386385767,16.67746037,23.81605888,25.52567135,27.486791
06/01/2020 23:00,6.644746517,13.07363573,18.72202192,20.73255358,22.77547607
07/01/2020 00:00,5.114956117,10.62488438,15.49500005,16.87271765,18.4137708
07/01/2020 01:00,5.3676116,10.92558342,15.03323257,15.343094,16.0420407
07/01/2020 02:00,5.1551289,10.70064968,14.46517063,14.7884006,15.49626598
07/01/2020 03:00,4.580791717,9.171854917,12.17492678,12.40646887,12.9070171
07/01/2020 04:00,4.373693167,8.798626583,11.78062417,12.30078737,13.12261752
07/01/2020 05:00,4.862876183,10.16820162,13.61828372,14.20142885,15.05975858
07/01/2020 06:00,5.9971552,12.4401507,16.40957392,16.84765958,17.69629473
07/01/2020 07:00,4.714336933,9.529952533,12.27055495,12.32251978,12.67793968
07/01/2020 08:00,3.47013065,6.759888583,8.574737217,8.671692917,8.97871455
07/01/2020 09:00,3.070043483,5.8944036,7.437595833,7.5786778,7.84026645
07/01/2020 10:00,4.42459225,8.740061933,11.18357187,11.49413535,12.14940743
07/01/2020 11:00,4.7639248,9.423555833,12.3528706,12.58760607,13.325878
07/01/2020 12:00,4.27913385,8.281983483,10.77097615,10.93471625,11.32697392
07/01/2020 13:00,3.2228162,6.749369717,9.073592467,9.1475635,9.484175683
07/01/2020 14:00,2.832935717,5.670447017,7.4377169,7.512216283,7.768527017
07/01/2020 15:00,4.485898267,9.01041585,11.77756663,11.96173482,12.41971675
07/01/2020 16:00,9.25522695,18.82975222,24.35332442,24.70339442,25.96997222
07/01/2020 17:00,14.64744498,29.60772888,37.99300685,38.14299138,39.24596532
07/01/2020 18:00,13.51898207,26.95616005,35.33730228,35.86930257,37.49209267
07/01/2020 19:00,13.15760112,26.45190118,34.18306495,34.43848695,35.52561438
07/01/2020 20:00,8.767166033,18.32213785,23.78987413,23.90435498,24.62648065
07/01/2020 21:00,6.80926315,15.11519015,20.92889253,21.2791169,22.20806418
07/01/2020 22:00,6.760218267,14.65164093,20.4735088,20.97419048,21.9998708
07/01/2020 23:00,6.56446255,13.61538215,19.1149564,20.3693139,21.81858852
08/01/2020 00:00,5.772816867,12.12351673,17.14448218,18.47440308,19.92875193
08/01/2020 01:00,5.30501155,11.22459907,16.06439115,17.08749648,18.4897887
08/01/2020 02:00,5.226311483,11.08317317,15.82361022,17.18754425,18.55513673
08/01/2020 03:00,4.299171767,9.312830967,13.49330157,15.06443282,16.48576098
08/01/2020 04:00,4.420730017,9.894340267,14.57009178,15.94102622,17.39445527
08/01/2020 05:00,3.995404633,8.937275783,13.13600893,14.1424114,15.22812583
08/01/2020 06:00,3.33345225,7.372848233,10.83517145,11.73486873,12.6722037
08/01/2020 07:00,3.386021833,7.289664333,10.4926404,11.45602527,12.52447733
08/01/2020 08:00,3.092441067,6.850710233,9.95391405,11.0901725,12.1441182
08/01/2020 09:00,3.64562235,8.1143485,11.94646323,13.27302393,14.59403275
08/01/2020 10:00,4.44416185,10.01326255,15.05977127,17.21832948,19.16011182
08/01/2020 11:00,3.796063767,8.465671033,12.67379167,13.97415438,15.28207927
08/01/2020 12:00,4.274786583,9.4297223,14.24807318,16.22413452,17.98901515
08/01/2020 13:00,4.520282683,9.906000167,14.74551145,16.76884887,18.60107777
08/01/2020 14:00,5.284090583,11.45744877,17.15355333,19.37208022,21.36630488
08/01/2020 15:00,5.072615267,11.16104255,16.92866725,19.11923838,21.18416625
08/01/2020 16:00,7.210018867,15.31907677,22.91367492,25.68084475,28.22667755
08/01/2020 17:00,17.27860057,28.6744983,39.5711641,45.4822472,50.2633993
08/01/2020 18:00,31.19335708,42.90982015,53.66393247,59.64085077,64.9228164
08/01/2020 19:00,24.29676813,30.47840992,35.27202497,37.96264682,40.1697618
08/01/2020 20:00,20.67195998,24.11241628,26.67387018,27.54151115,28.45282385
08/01/2020 21:00,17.4720674,21.43736012,24.48140383,25.52165148,26.79025783
08/01/2020 22:00,13.60388003,17.26525432,20.03162403,21.21383613,22.37029123
08/01/2020 23:00,10.66256635,14.09980668,16.89530408,18.04072942,19.63962953
09/01/2020 00:00,7.70441175,11.01719985,13.78576992,14.6464713,15.5232319
09/01/2020 01:00,5.510593233,8.584538883,11.20381242,12.09804285,13.18461437
09/01/2020 02:00,3.919739267,6.983840167,9.720806767,10.9928295,12.16337682
09/01/2020 03:00,3.969640783,7.29727275,10.3762362,11.47072067,12.45608207
09/01/2020 04:00,4.219283333,8.846410033,13.38746103,16.50881762,19.10828932
09/01/2020 05:00,8.186481317,18.2125185,28.55046823,36.94563155,43.7596956
09/01/2020 06:00,10.09420613,21.04080973,31.90796015,37.96104603,43.31770793
09/01/2020 07:00,7.8971631,14.86523788,21.503812,25.2650612,28.47605453
09/01/2020 08:00,11.84480675,23.40675237,35.0461052,41.99742192,47.58529003
09/01/2020 09:00,13.36348535,25.59758032,37.6473117,45.46095688,51.89951238
09/01/2020 10:00,10.64129237,18.25322183,25.56915463,29.28806173,32.38964537
09/01/2020 11:00,18.95070968,31.00273843,42.73175907,50.42756982,56.79805507
09/01/2020 12:00,19.07937338,29.64070615,39.87267017,48.64731922,56.05654638
09/01/2020 13:00,14.01537555,24.2993462,34.33887483,42.28096608,49.01819492
09/01/2020 14:00,16.02051305,26.03693858,35.5159406,42.08002565,47.52826238
09/01/2020 15:00,14.21629697,20.496973,26.03513665,29.14232332,31.61887805
09/01/2020 16:00,13.81284797,21.15287537,28.17378885,32.5394045,36.00409335
09/01/2020 17:00,28.3076199,33.22816147,36.70014838,38.60429407,40.70954797
09/01/2020 18:00,23.08736943,28.07708892,32.02269057,34.36594218,36.50523638
09/01/2020 19:00,20.18070095,23.83179388,26.43484055,27.95341245,29.30324783
09/01/2020 20:00,32.67629038,36.50283332,39.36164108,41.20429258,43.00344533
09/01/2020 21:00,8.5270463,11.79508967,14.71112757,15.87125848,16.92898853
09/01/2020 22:00,3.916873983,9.009917883,13.0993209,13.61426058,14.47813753
09/01/2020 23:00,3.2830476,8.318044933,12.89249668,14.14796565,15.41214988
10/01/2020 00:00,3.513860717,9.049022383,14.31546212,16.09375068,17.89803952
10/01/2020 01:00,2.882651133,7.05940025,11.1174057,12.7402931,14.16978023
10/01/2020 02:00,2.992522783,7.593935217,12.16617703,14.30841873,16.2306298
10/01/2020 03:00,3.426301517,8.906965433,14.60907327,17.68902353,20.44648233
10/01/2020 04:00,2.2486605,5.76311555,9.212725417,11.14651463,12.79929602
10/01/2020 05:00,2.61959095,6.748536633,10.99420567,12.6891384,14.17951142
10/01/2020 06:00,3.26821305,8.430720067,13.71463205,17.04906153,20.09147588
10/01/2020 07:00,3.303933867,8.147605383,13.27984293,17.45696388,20.7803924
10/01/2020 08:00,2.547013583,5.873934633,9.2803061,11.13918447,12.59992872
10/01/2020 09:00,4.48202375,7.17798355,9.6536728,10.74532048,11.73101907
10/01/2020 10:00,5.99788645,8.490590433,10.77548333,11.94136845,12.96335487
10/01/2020 11:00,5.98687895,8.754531733,11.3082564,12.4551272,13.47587925
10/01/2020 12:00,4.08543455,6.517284483,8.7334632,9.575445717,10.39516598
10/01/2020 13:00,3.266595867,6.208110133,8.692680383,9.334110383,10.01005263
10/01/2020 14:00,4.509181567,7.5952064,9.71482785,10.0060903,10.43064658
10/01/2020 15:00,6.18632515,9.241920383,11.24754132,11.3907826,11.72979375
10/01/2020 16:00,5.01426845,7.727119717,9.32234285,9.61489555,10.28238535
10/01/2020 17:00,6.23947085,8.8015416,10.3223159,10.38781807,10.6036885
10/01/2020 18:00,7.0709841,9.675694833,11.10919815,11.4148344,11.84471708
10/01/2020 19:00,8.016905983,11.34711317,13.21196603,13.33081372,13.61749218
10/01/2020 20:00,5.36577115,8.50937195,10.2585315,10.29928678,10.5267531
10/01/2020 21:00,5.496307017,9.091910933,11.16261502,11.46168223,12.25362757
10/01/2020 22:00,5.1816376,8.852294983,10.96361585,10.96361585,11.20076132
10/01/2020 23:00,3.925675333,7.363750467,9.402985917,9.41524015,9.66618685
11/01/2020 00:00,3.049408417,5.988984917,7.723282367,7.83186845,8.158203833
11/01/2020 01:00,3.390635283,6.7162862,8.6553439,8.693183967,8.939702983
11/01/2020 02:00,3.900876167,7.80307335,10.18566533,10.21213662,10.50543008
11/01/2020 03:00,3.96346395,8.02636045,10.47994718,10.50690703,10.81459855
11/01/2020 04:00,5.000185533,10.31351483,13.43948057,13.55960817,14.23146223
11/01/2020 05:00,3.896452367,8.19308795,11.05115253,11.44148005,12.1250315
11/01/2020 06:00,2.75565635,4.562160317,5.6269266,5.774808883,5.987023083
11/01/2020 07:00,2.8518129,5.34959125,6.843733217,6.866600567,7.05543095
11/01/2020 08:00,2.413372683,5.398911667,7.600342233,7.666765183,7.980992933
11/01/2020 09:00,2.350506717,5.715327667,8.591603733,8.9703471,9.620666883
11/01/2020 10:00,2.187016733,4.90875605,7.240513817,7.618748267,8.24479035
11/01/2020 11:00,3.8222367,6.59990025,8.673786733,8.868748083,9.251265517
11/01/2020 12:00,3.126237967,6.614257083,9.13595505,9.338586283,9.767546283
11/01/2020 13:00,3.688841117,7.889793367,10.98862227,11.61839863,12.7059537
11/01/2020 14:00,3.84470195,8.201313317,11.19693323,11.40536475,11.89217905
11/01/2020 15:00,4.756354733,10.09170718,13.77542452,14.17628922,14.85453673
11/01/2020 16:00,5.745759067,12.12131783,16.72229128,17.39074685,18.54927135
11/01/2020 17:00,3.742736733,8.320876,11.9047658,12.43083675,13.28083675
11/01/2020 18:00,4.28522305,9.847707233,14.51117373,15.38064038,16.48406897
11/01/2020 19:00,4.393131433,9.07995715,12.92691662,13.73281638,14.65457312
11/01/2020 20:00,4.0539809,8.46342785,12.18682913,12.96118988,13.87429633
11/01/2020 21:00,4.7192324,10.30017573,15.08457353,16.43918615,18.31915922
11/01/2020 22:00,4.079038417,9.209594467,14.17486453,16.25856885,18.20517948
11/01/2020 23:00,3.02903995,6.913964017,10.79580018,12.62846988,14.1794424
12/01/2020 00:00,6.120221,12.04656075,17.74432017,21.15442067,24.24421743
12/01/2020 01:00,8.354471533,16.52015498,24.11077327,26.75906273,29.37157173
12/01/2020 02:00,7.451625167,14.13925983,20.1524876,22.37173948,24.72212223
12/01/2020 03:00,2.907871717,6.204896283,9.136845683,9.8688344,10.65113805
12/01/2020 04:00,3.184990117,7.121917117,10.58374832,11.85133762,13.19260438
12/01/2020 05:00,2.320395317,4.89333365,7.082024667,7.7063229,8.338629583
12/01/2020 06:00,2.2265686,5.164224617,7.693901,8.730771833,9.76541095
12/01/2020 07:00,3.2184892,7.366243067,10.80579102,11.27177575,12.03537385
12/01/2020 08:00,2.833801983,6.92213745,10.81133222,12.05739885,13.25483748
12/01/2020 09:00,2.647142617,6.478303967,10.13307958,11.88817013,13.48408042
12/01/2020 10:00,2.429871217,5.799241667,8.8979127,10.06862112,11.12866753
12/01/2020 11:00,2.923866117,6.611150783,9.937049483,11.18767087,12.36610248
12/01/2020 12:00,3.235330633,7.020243983,10.43507085,11.37681918,12.31786402
12/01/2020 13:00,2.973437567,6.8108195,10.3985642,11.62891392,12.80374125
12/01/2020 14:00,2.96925055,6.42472715,9.4623166,10.30977282,11.16371528
12/01/2020 15:00,3.695215933,7.509578083,10.9583429,11.93770317,12.96736338
12/01/2020 16:00,5.44644545,10.70716093,15.7244212,17.64452692,19.30734037
12/01/2020 17:00,4.469380383,8.7348714,12.80484777,14.74794233,16.44782138
12/01/2020 18:00,12.34166743,16.45844435,20.31002883,22.43506778,24.22330483
12/01/2020 19:00,12.58699935,17.58421597,22.38499968,25.0659012,27.29519297
12/01/2020 20:00,11.33484355,16.61007692,21.78120887,24.09110318,26.04486627
12/01/2020 21:00,6.602582967,10.12756825,13.34015775,14.92536695,16.50078337
12/01/2020 22:00,4.679346083,6.856785983,8.705788433,9.527346383,10.26772002
12/01/2020 23:00,7.115830483,10.9242685,14.1296481,15.05442192,16.03604725
13/01/2020 00:00,4.790890083,7.611343383,10.02211777,11.11550617,12.09210325
13/01/2020 01:00,4.846525233,7.340019917,9.37893665,9.989214783,10.58281503
13/01/2020 02:00,3.269122183,5.968282683,8.311223217,9.205253283,10.11248255
13/01/2020 03:00,2.687416067,4.351657117,5.71143425,6.086455483,6.482569917
13/01/2020 04:00,1.9463216,3.420266583,4.66109065,4.9148736,5.20652135
13/01/2020 05:00,1.675931433,3.371253383,4.817897117,5.1509053,5.5073996
13/01/2020 06:00,1.9939,4.002685383,5.7218936,6.015765983,6.395230883
13/01/2020 07:00,2.20587,4.292941883,6.051728483,6.486461017,7.131314667
13/01/2020 08:00,2.8396369,5.205462133,7.037655917,7.686211183,8.464507133
13/01/2020 09:00,2.584205283,4.874140317,6.631392767,6.906449,7.390950483
13/01/2020 10:00,2.818230217,4.921708617,6.297326167,6.831608533,7.767474283
13/01/2020 11:00,4.9736069,7.164880367,8.55079525,9.004561783,9.5476863
13/01/2020 12:00,2.699790217,4.25855645,5.20371355,5.3215107,5.496993167
13/01/2020 13:00,2.61261495,3.80127585,4.520014367,4.8718284,5.28821595
13/01/2020 14:00,8.2681009,9.988267683,11.24228135,11.66268785,12.16114102
13/01/2020 15:00,5.791334483,9.589632683,12.46707035,13.27842978,14.31950272
13/01/2020 16:00,7.866529,12.0391507,14.27730557,14.48979048,14.8735074
13/01/2020 17:00,5.1797119,9.5145471,11.96560583,12.02674643,12.3505634
13/01/2020 18:00,8.590409417,16.58147857,21.44609838,21.58514512,22.2443388
13/01/2020 19:00,9.31051335,18.9353871,25.30330642,25.71118507,26.7639031
13/01/2020 20:00,9.149328117,17.22981868,22.53590677,22.81071618,23.61172065
13/01/2020 21:00,5.8954301,11.20343725,14.94676287,15.55350983,16.35312658
13/01/2020 22:00,4.886060467,9.332005317,12.6241034,13.0889687,13.79668628
13/01/2020 23:00,4.8079212,9.573230717,13.17943577,14.07484437,15.05144907
14/01/2020 00:00,5.275385533,10.68990812,14.91504625,15.6533814,16.5851113